User: anonymous   Login
Location: Raleigh
(35.7720°N, 78.6390°W)
Time: 04:17:05
(UTC-04:00)
Language:

JAS-2 - Orbit

View from above orbital plane
View from above orbital plane
View from above satellite
View from above satellite

Ground track
Ground track

The orbit data is extracted from the following two-line orbital elements,

1 24278U 96046B   16122.80648914 -.00000038  00000-0 -56797-7 0  9994
2 24278  98.5845  54.0864 0349788 322.8817  34.8589 13.53066943973243
Epoch (UTC): 01 May 2016 19:21:20
Eccentricity: 0.0349788
inclination: 98.5845°
perigee height: 801 km
apogee height: 1321 km
right ascension of ascending node: 54.0864°
argument of perigee: 322.8817°
revolutions per day: 13.53066943
mean anomaly at epoch: 34.8589°
orbit number at epoch: 97324

The dashed part of the orbit path shows where the satellite is in the earth's shadow,  

DLR